Regional Weather Roundup
Issued by NWS Newport/Morehead, NC

Current Version | Previous Version | Graphics & Text | Print | Product List | Glossary Off
Versions: 1 2 3 4 5 6 7 8 9 10 11 12 13 14 15 16 17 18 19 20 21 22 23 24 25 26 27 28 29 30 31 32 33 34 35 36 37 38 39 40 41 42 43 44 45 46 47 48 49 50

000
ASUS42 KMHX 291613
RWRMHX
WEATHER ROUNDUP FOR EASTERN NORTH CAROLINA
NATIONAL WEATHER SERVICE NEWPORT/MOREHEAD CITY NC
1200 PM EDT SUN MAY 29 2016

NOTE: "FAIR" INDICATES FEW OR NO CLOUDS BELOW 12,000 FEET
WITH NO SIGNIFICANT WEATHER AND/OR OBSTRUCTIONS TO VISIBILITY

NCZ015>017-031-032-045>047-102-103-291700-
NORTH COAST

CITY           SKY/WX    TMP DP  RH WIND       PRES   REMARKS
EDENTON        DRIZZLE  N/A N/A N/A E10       30.12S
ELIZABETH CITY RAIN      73  71  93 S6        30.13S FOG
KITTY HAWK     CLOUDY    81  71  71 SE9       30.11F
MANTEO         NOT AVBL

$$

NCZ045>047-081-094-103-104-291700-
CENTRAL COAST

CITY           SKY/WX    TMP DP  RH WIND       PRES   REMARKS
FRISCO         PTSUNNY   83  74  74 S12       30.11S

$$

NCZ095-097-098-100-101-291700-
SOUTHERN COAST

CITY           SKY/WX    TMP DP  RH WIND       PRES   REMARKS
BEAUFORT       PTSUNNY   81  75  82 SE13G21   30.08S
CEDAR ISLAND   NOT AVBL
JACKSONVILLE   PTSUNNY   83  72  69 S15G25    30.06R
PINEY ISLAND   MOSUNNY  N/A N/A N/A SE17G29   30.08F
WILMINGTON     CLOUDY    82  72  71 SE16G24   30.04S


$$

NCZ011>013-027>030-043-044-078>080-089-090>093-098-291700-
COASTAL PLAIN

CITY           SKY/WX    TMP DP  RH WIND       PRES   REMARKS
AHOSKIE        LGT RAIN  74  72  93 NE5       30.11S
CLINTON        PTSUNNY   80  75  85 E6        30.06S
ELIZABETHTOWN  PTSUNNY   81  73  78 E7        30.02F
GOLDSBORO      CLOUDY    75  75 100 NE7       30.06S
GREENVILLE     LGT RAIN  73  73 100 E6        30.10F
HAVELOCK       RAIN      81  73  76 S15G23    30.08S VSB 1
KENANSVILLE    PTSUNNY   78  73  83 CALM      30.06F
KINSTON        RAIN      75  73  94 E5        30.09R
NEW BERN       PTSUNNY   82  74  76 S15       30.08S
RICHLANDS      PTSUNNY   82  74  76 SE15      30.05F
ROCKY MOUNT    LGT RAIN  73  72  96 NE6       30.09S FOG
WASHINGTON     CLOUDY    74  72  96 E3        30.09S
WHITEVILLE     PTSUNNY   79  74  83 E9        30.00F

$$

AMZ130-135-150-152-154-156-158-170-250-252-270-ANZ085-086-088-633-658-670-291700-
MARINE OBSERVATIONS

STATION/POSITION TIME  TEMP    WIND        PRES    WAVE   SWELL
                       AIR SEA DIR/SP/G            HT/PER HT/PER
                 (UTC) (F)     (DEG/KT/KT) (MB)    (FT/S) (FT/S)
CHESAPEAKE LIGHT 1600   72     120/ 15/ 15 1020.7
64 E VA BEACH    1550   70 65  160/ 10/ 14 1020.6    4/ 8   3/ 8
DUCK             1500   72 64  120/  8/ 11 1019.6
2 E DUCK         1511      68                N/A     3/ 8
OREGON INLET     1500   77 71  110/  7/ 11 1020.0
13E OREGON INLT  1600      70                N/A     4/ 8   3/ 8
HATTERAS CG      1500   79 76  140/ 11/ 15 1019.1
DIAMOND BUOY     1550   79 76  160/ 17/ 19 1019.3    6/ 8   2/13
CAPE LOOKOUT     1600   76     140/ 12/ 13 1018.4
BEAUFORT LAB     1500   78 75  150/ 10/ 14 1017.7
30 SE NEW RVR IN 1525      75                N/A     7/ 7
27 SE WRIGHTSVLE 1508   79 76  160/ 16/ 19 1016.4
5 SE WRIGHTSVLE  1508   77 75  140/  8/ 12 1018.0
225 S CAPE HAT   1550   76 76  130/ 16/ 17 1019.3    4/ 7   2/ 8
41 SE CHARLESTON 1550   74 77  190/ 19/ 23 1013.8    6/ 8   3/ 8

$$




USA.gov is the U.S. government's official web portal to all federal, state and local government web resources and services.